EventNavy

Jakarta

124,117 Data

[1001]  UFCACAYoungEagles64  05/08 01:36  1  0

[1002]  UFCGeorgyShakhruramazanovVSGediev  05/08 01:30  1  0

[1003]  UFCACAYoungEagles64  05/08 01:28  1  0

[1004]  vivod iz zapoya na domy_lxoi  05/08 01:24  1  0

[1005]  1xbet_skol  05/08 01:22  1  0

[1006]  888starz uz_wiSt  05/08 01:19  1  0

[1007]  Kixxbub  05/08 01:18  1  0

[1008]  1win_ryMt  05/08 01:18  1  0

[1009]  Fobertkef-1  05/08 01:16  0  0

[1010]  UFCACAYoungEagles64  05/08 01:15  1  0

[1011]  melbet_prSn  05/08 01:11  1  0

[1012]  1win_zdPt  05/08 01:09  1  0

[1013]  vivod iz zapoya na domy_ydMr  05/08 01:09  1  0

[1014]  1xbet_gwEl  05/08 01:09  0  0

[1015]  Fobertkef-1  05/08 01:08  1  0

[1016]  vivod iz zapoya na domy_aoMr  05/08 01:07  1  0

[1017]  Henryspawn  05/08 01:06  1  0

[1018]  1xbet_taEl  05/08 01:06  1  0

[1019]  vivod iz zapoya na domy_eemr  05/08 01:03  1  0

[1020]  Kixxbub  05/08 01:02  1  0

[1021]  1xbet_dhol  05/08 01:00  1  0

[1022]  vivod iz zapoya na domy_wcmr  05/08 00:59  1  0

[1023]  Fobertkef-1  05/08 00:53  1  0

[1024]  888starz uz_tcSt  05/08 00:53  1  0

[1025]  vivod iz zapoya na domy_kjoi  05/08 00:49  1  0

[1026]  vivod iz zapoya na domy_sioi  05/08 00:48  1  0

[1027]  mostbet_ifpl  05/08 00:47  1  0

[1028]  Josephvew  05/08 00:44  1  0

[1029]  1win_rfPt  05/08 00:42  1  0

[1030]  Fobertkef-1  05/08 00:33  1  0

[1031]  Timothyreobe  05/08 00:31  1  0

[1032]  Fobertkef-1  05/08 00:30  1  0

[1033]  1xbet_amol  05/08 00:23  1  0

[1034]  1xbet_lool  05/08 00:22  1  0

[1035]  Fobertkef-1  05/08 00:19  0  0

[1036]  Fobertkef-1  05/08 00:19  0  0

[1037]  1win_ogMt  05/08 00:17  1  0

[1038]  melbet_zgSn  05/08 00:14  0  0

[1039]  JustinNem  05/08 00:06  1  0

[1040]  888starz uz_heSt  05/08 00:03  1  0

[1041]  vivod iz zapoya na domy_vsoi  05/08 00:01  1  0

[1042]  888starz uz_snSt  05/08 00:01  1  0

[1043]  Fobertkef-1  05/07 23:56  1  0

[1044]  FreddyNap  05/07 23:55  1  0

[1045]  Fobertkef-1  05/07 23:47  1  0

[1046]  Timothyreobe  05/07 23:39  1  0

[1047]  FreddyNap  05/07 23:39  0  0

[1048]  melbet_ofSn  05/07 23:39  0  0

[1049]  1xbet_apol  05/07 23:33  1  0

[1050]  Fobertkef-1  05/07 23:25  1  0

[1051]  1win_mlPt  05/07 23:12  1  0

[1052]  Kixxbub  05/07 23:10  1  0

[1053]  888starz uz_qxSt  05/07 23:05  1  0

[1054]  sweet-bonanza_wyMn  05/07 23:02  1  0

[1055]  1win_hoPn  05/07 23:02  1  0

[1056]  1win_ypPl  05/07 23:01  1  0

[1057]  Fobertkef-1  05/07 23:01  1  0

[1058]  Fobertkef-1  05/07 22:57  1  0

[1059]  melbet_qlSn  05/07 22:53  1  0

[1060]  Kixxbub  05/07 22:53  1  0

[1061]  Fobertkef-1  05/07 22:52  1  0

[1062]  Fobertkef-1  05/07 22:50  1  0

[1063]  vivod iz zapoya na domy_ajoi  05/07 22:47  0  0

[1064]  vivod iz zapoya na domy_qhoi  05/07 22:45  0  0

[1065]  1win_riMt  05/07 22:42  1  0

[1066]  Fobertkef-1  05/07 22:38  1  0

[1067]  1win_faPt  05/07 22:30  1  0

[1068]  Fobertkef-1  05/07 22:24  1  0

[1069]  sweet-bonanza_ytMn  05/07 22:23  1  0

[1070]  1win_gqPn  05/07 22:23  1  0

[1071]  1win_tgPl  05/07 22:22  1  0

[1072]  1win_anMt  05/07 22:16  1  0

[1073]  1xbet_twol  05/07 22:13  1  0

[1074]  1xbet_dool  05/07 22:11  0  0

[1075]  tolifedehumidifier 220  05/07 22:00  1  0

[1076]  tolifedehumidifier 893  05/07 22:00  1  0

[1077]  tolifedehumidifier 769  05/07 22:00  0  0

[1078]  Fobertkef-1  05/07 22:00  1  0

[1079]  FreddyNap  05/07 21:48  1  0

[1080]  Fobertkef-1  05/07 21:47  1  0

[1081]  1win_lzPl  05/07 21:36  0  0

[1082]  sweet-bonanza_zzMn  05/07 21:35  1  0

[1083]  1win_jwPn  05/07 21:35  1  0

[1084]  1win_vdPl  05/07 21:34  1  0

[1085]  sweet-bonanza_luMn  05/07 21:33  1  0

[1086]  Fobertkef-1  05/07 21:33  0  0

[1087]  1win_hxPn  05/07 21:32  0  0

[1088]  FreddyNap  05/07 21:31  0  0

[1089]  888starz uz_nsSt  05/07 21:27  0  0

[1090]  888starz uz_klSt  05/07 21:23  0  0

[1091]  Fobertkef-1  05/07 21:19  0  0

[1092]  Fobertkef-1  05/07 21:04  0  0

[1093]  Kixxbub  05/07 21:03  0  0

[1094]  Fobertkef-1  05/07 20:58  0  0

[1095]  Fobertkef-1  05/07 20:53  0  0

[1096]  Jeffreyreupe  05/07 20:52  0  0

[1097]  melbet_pdSn  05/07 20:50  0  0

[1098]  Fobertkef-1  05/07 20:47  0  0

[1099]  Kixxbub  05/07 20:47  0  0

[1100]  mostbet_hcsl  05/07 20:39  1  0

Jakarta
Nama Tempat
Penjelasan